Location: Unspecified
(55.7024°N, 37.6611°E)
Time: 18:30:14
(UTC+03:00)

S-56A Canister/Altair - Visible Passes

Search period start: 23 June 2025 00:00
Search period end: 03 July 2025 00:00
Orbit: 632 x 2486 km, 38.9° (Epoch: 23 June)

Date Brightness Start Highest point End Pass type
(mag) Time Alt. Az. Time Alt. Az. Time Alt. Az.
23 Jun 10.7 01:19:57 10° S 01:26:32 17° SE 01:34:02 10° ESE visible
24 Jun 10.7 00:46:45 10° SSE 00:51:48 14° SE 00:57:28 10° ESE visible
25 Jun 10.7 00:14:39 10° SE 00:17:11 11° SE 00:19:53 10° ESE visible
25 Jun 10.5 02:10:12 10° SSW 02:19:10 28° SSE 02:30:09 10° E visible
26 Jun 10.4 01:36:35 11° SSW 01:44:17 25° SSE 01:54:21 10° E visible
27 Jun 10.3 01:03:09 13° S 01:09:29 22° SE 01:18:27 10° E visible
28 Jun 10.3 00:29:41 13° S 00:34:46 19° SE 00:42:25 10° ESE visible
28 Jun 10.2 02:28:10 10° SW 02:37:26 33° SSE 02:49:14 10° ESE visible
28 Jun 10.3 23:56:10 12° SSE 00:00:08 16° SE 00:06:09 10° ESE visible
29 Jun 10.2 01:53:53 10° SW 02:02:28 31° SSE 02:13:35 10° ESE visible
29 Jun 10.3 23:22:34 11° SSE 23:25:34 12° SE 23:29:27 10° ESE visible
30 Jun 10.1 01:19:46 10° SSW 01:27:36 28° SSE 01:37:53 10° ESE visible
01 Jul 10.1 00:46:04 11° SSW 00:52:49 25° SSE 01:02:08 10° ESE visible
01 Jul 10.1 02:46:53 10° SW 02:55:58 35° S 03:07:48 10° ESE visible
02 Jul 10.1 00:12:14 12° SSW 00:18:06 22° SSE 00:26:20 10° ESE visible
02 Jul 10.0 02:12:29 10° SW 02:21:00 33° S 02:32:16 10° ESE visible
02 Jul 10.0 23:38:06 10° S 23:43:29 19° SE 23:50:27 10° ESE visible
